Boscobel, WI

6:01 PM CDT on April 23, 2017 (GMT -0500)
Boscobel

Weather History for KOVS - April, 2013

Change the Weather History Date:

Monday, April 1, 2013

  Actual Average (KPDC) Record (KPDC)
Temperature  
Mean Temperature 32 °F -  
Max Temperature 37 °F 54 °F 81 °F (1986)
Min Temperature 26 °F 31 °F 21 °F (1968)
Degree Days  
Heating Degree Days 34    
Moisture  
Dew Point 13 °F    
Average Humidity 49    
Maximum Humidity 63    
Minimum Humidity 37    
Precipitation  
Precipitation 0.00 in - - ()
Sea Level Pressure  
Sea Level Pressure 30.18 in    
Wind  
Wind Speed 6 mph (WNW)    
Max Wind Speed 13 mph    
Max Gust Speed 20 mph    
Visibility 10 miles    
Events Rain    
Averages and records for this station are not official NWS values.
T = Trace of Precipitation, MM = Missing Value Source: NWS Daily Summary

Daily Weather History Graph

Daily Weather History Graph

Search for Another Location

Airport or City:

Trip Planner

Search our weather history database for the weather conditions in past years. The results will help you decide how hot, cold, wet, or windy it might be!

Date:

Astronomy

Apr. 01, 2013 Rise Set
Actual Time 6:44 AM CDT 7:29 PM CDT
Civil Twilight 6:15 AM CDT 7:58 PM CDT
Nautical Twilight 5:41 AM CDT 8:32 PM CDT
Astronomical Twilight 5:06 AM CDT 9:07 PM CDT
Moon 12:44 AM CDT (4/1) 10:24 AM CDT (4/1)
Length of Visible Light 13h 42m
Length of Day
12h 45m
Waning Gibbous, 67% of the Moon is Illuminated
Apr 1
Waning Gibbous
Apr 2
Last Quarter
Apr 10
New
Apr 18
First Quarter
Apr 25
Full

Hourly Weather History & Observations

Time (CDT) Temp. Windchill Dew Point Humidity Pressure Visibility Wind Dir Wind Speed Gust Speed Precip Events Conditions
12:53 AM 30.9 °F 27.5 °F 14.0 °F 50% 30.03 in 10.0 mi WNW 3.5 mph - N/A   Clear
1:53 AM 30.0 °F 25.2 °F 15.1 °F 54% 30.05 in 10.0 mi WNW 4.6 mph - N/A   Clear
2:53 AM 28.9 °F 25.2 °F 17.1 °F 61% 30.07 in 10.0 mi WNW 3.5 mph - N/A   Mostly Cloudy
3:53 AM 28.0 °F 21.7 °F 15.1 °F 58% 30.08 in 10.0 mi NW 5.8 mph - N/A   Scattered Clouds
4:53 AM 27.0 °F 19.5 °F 15.1 °F 61% 30.11 in 10.0 mi NW 6.9 mph - N/A   Clear
5:53 AM 27.0 °F 21.6 °F 12.0 °F 53% 30.13 in 10.0 mi NNW 4.6 mph - N/A   Clear
6:53 AM 26.1 °F - 12.0 °F 55% 30.16 in 10.0 mi Calm Calm - N/A   Unknown
7:53 AM 28.0 °F 22.8 °F 15.1 °F 58% 30.19 in 10.0 mi WNW 4.6 mph - N/A   Clear
8:53 AM 28.9 °F 20.4 °F 15.1 °F 56% 30.20 in 10.0 mi WNW 9.2 mph - 0.00 in   Clear
9:53 AM 30.0 °F 20.0 °F 12.9 °F 49% 30.21 in 10.0 mi WNW 12.7 mph - 0.00 in   Partly Cloudy
10:53 AM 30.9 °F 21.7 °F 10.9 °F 43% 30.22 in 10.0 mi NW 11.5 mph 19.6 mph 0.00 in   Partly Cloudy
11:53 AM 34.0 °F 26.0 °F 12.0 °F 40% 30.20 in 10.0 mi NNW 10.4 mph 18.4 mph 0.00 in Rain Light Rain
12:53 PM 35.1 °F 27.4 °F 12.9 °F 40% 30.23 in 10.0 mi North 10.4 mph 19.6 mph 0.00 in Rain Light Rain
1:53 PM 34.0 °F 28.8 °F 12.0 °F 40% 30.22 in 10.0 mi West 5.8 mph 16.1 mph 0.00 in Rain Light Rain
2:53 PM 36.0 °F 28.0 °F 12.9 °F 39% 30.21 in 10.0 mi WSW 11.5 mph - 0.00 in Rain Light Rain
3:53 PM 37.0 °F 29.3 °F 14.0 °F 39% 30.22 in 10.0 mi WNW 11.5 mph - 0.00 in Rain Light Rain
4:53 PM 37.0 °F 31.6 °F 12.9 °F 37% 30.21 in 10.0 mi WNW 6.9 mph 19.6 mph 0.00 in Rain Light Rain
5:53 PM 35.1 °F 26.9 °F 12.0 °F 39% 30.22 in 10.0 mi WNW 11.5 mph - 0.00 in Rain Light Rain
6:53 PM 33.1 °F 26.1 °F 12.0 °F 42% 30.22 in 10.0 mi West 8.1 mph - 0.00 in   Clear
7:53 PM 30.9 °F 26.2 °F 12.0 °F 46% 30.22 in 10.0 mi WNW 4.6 mph - N/A   Clear
8:53 PM 30.0 °F 26.5 °F 12.0 °F 47% 30.24 in 10.0 mi WNW 3.5 mph - N/A   Clear
9:53 PM 30.0 °F 26.5 °F 12.9 °F 49% 30.25 in 10.0 mi West 3.5 mph - N/A   Clear
10:53 PM 28.0 °F 24.2 °F 15.1 °F 58% 30.26 in 10.0 mi SW 3.5 mph - N/A   Clear
11:53 PM 27.0 °F 23.0 °F 16.0 °F 63% 30.26 in 10.0 mi SSW 3.5 mph - N/A   Clear